When you browse on this site, cookies collect data to enhance your experience and personalize the content and advertising you see.
Visit our Privacy Policy to learn more. By continuing to use the site, you agree to this use of cookies and data.
  • în România
  • Lista ţărilor
  • Pe 7 zile
  • Temperatura apei
  • Hartă satelitară
  • Meteo pe hartă
  • Widget-uri
  • user-avatar
    Intrare

    Meteo pe oră la Lasanen

    Astăzi, 18 Februarie, Luni

    Timp Temperatura Precipitaţii Vânt Presiune Umiditate
    00:00 -9°C° 0 mm 3 m/s 762 mmHg 87%
    01:00 -9°C° 0 mm 3 m/s 762 mmHg 89%
    02:00 -10°C° 0 mm 3 m/s 763 mmHg 91%
    03:00 -9°C° 0 mm 2 m/s 763 mmHg 91%
    04:00 -10°C° 0 mm 2 m/s 763 mmHg 91%
    05:00 -10°C° 0 mm 2 m/s 764 mmHg 92%
    06:00 -10°C° 0 mm 1 m/s 764 mmHg 91%
    07:00 -10°C° 0 mm 1 m/s 764 mmHg 90%
    08:00 -10°C° 0 mm 0 m/s 764 mmHg 89%
    09:00 -9°C° 0 mm 1 m/s 764 mmHg 87%
    10:00 -7°C° 0 mm 1 m/s 764 mmHg 85%
    11:00 -7°C° 0 mm 2 m/s 764 mmHg 82%
    12:00 -7°C° 0 mm 3 m/s 763 mmHg 81%
    13:00 -7°C° 0 mm 3 m/s 762 mmHg 79%
    14:00 -7°C° 0 mm 4 m/s 762 mmHg 78%
    15:00 -7°C° 0 mm 4 m/s 761 mmHg 77%
    16:00 -6°C° 0 mm 5 m/s 760 mmHg 76%
    17:00 -6°C° 0 mm 5 m/s 759 mmHg 74%
    18:00 -5°C° 0 mm 5 m/s 758 mmHg 77%
    19:00 -5°C° 0 mm 6 m/s 757 mmHg 80%
    20:00 -4°C° 0 mm 6 m/s 756 mmHg 83%
    21:00 -4°C° 0.1 mm 6 m/s 755 mmHg 84%
    22:00 -3°C° 0.1 mm 6 m/s 754 mmHg 86%
    23:00 -2°C° 0.1 mm 6 m/s 753 mmHg 87%

    Mâine, 19 Februarie, Marţi

    Timp Temperatura Precipitaţii Vânt Presiune Umiditate
    00:00 -1°C° 0.1 mm 6 m/s 752 mmHg 88%
    01:00 -1°C° 0.1 mm 6 m/s 752 mmHg 89%
    02:00 -1°C° 0.1 mm 6 m/s 751 mmHg 90%
    03:00 -1°C° 0 mm 6 m/s 751 mmHg 91%
    04:00 -1°C° 0 mm 6 m/s 750 mmHg 92%
    05:00 0°C° 0 mm 5 m/s 749 mmHg 93%
    06:00 0°C° 0 mm 5 m/s 749 mmHg 94%
    07:00 0°C° 0 mm 5 m/s 749 mmHg 94%
    08:00 0°C° 0 mm 5 m/s 749 mmHg 94%
    09:00 0°C° 0.1 mm 5 m/s 748 mmHg 94%
    10:00 +1°C° 0.1 mm 5 m/s 748 mmHg 94%
    11:00 +1°C° 0.1 mm 5 m/s 748 mmHg 94%
    12:00 +1°C° 0.2 mm 5 m/s 747 mmHg 94%
    13:00 +1°C° 0.2 mm 5 m/s 747 mmHg 94%
    14:00 +1°C° 0.2 mm 5 m/s 747 mmHg 94%
    15:00 +1°C° 0.9 mm 5 m/s 746 mmHg 94%
    16:00 0°C° 0.9 mm 4 m/s 745 mmHg 95%
    17:00 0°C° 0.9 mm 4 m/s 745 mmHg 95%
    18:00 0°C° 0.9 mm 4 m/s 744 mmHg 95%
    19:00 0°C° 0.9 mm 4 m/s 744 mmHg 95%
    20:00 0°C° 0.9 mm 4 m/s 743 mmHg 95%
    21:00 0°C° 0.3 mm 4 m/s 743 mmHg 95%
    22:00 +1°C° 0.3 mm 3 m/s 742 mmHg 96%
    23:00 0°C° 0.3 mm 3 m/s 741 mmHg 96%

    Poimâine, 20 Februarie, Miercuri

    Timp Temperatura Precipitaţii Vânt Presiune Umiditate
    00:00 0°C° 0 mm 3 m/s 741 mmHg 96%
    01:00 0°C° 0 mm 3 m/s 740 mmHg 96%
    02:00 0°C° 0 mm 3 m/s 740 mmHg 97%
    03:00 0°C° 0.1 mm 3 m/s 740 mmHg 96%
    04:00 0°C° 0.1 mm 3 m/s 739 mmHg 96%
    05:00 0°C° 0.1 mm 3 m/s 739 mmHg 96%
    06:00 0°C° 0 mm 3 m/s 739 mmHg 96%
    07:00 0°C° 0 mm 3 m/s 739 mmHg 95%
    08:00 0°C° 0 mm 3 m/s 739 mmHg 95%
    09:00 0°C° 0 mm 3 m/s 739 mmHg 95%
    10:00 0°C° 0 mm 3 m/s 738 mmHg 94%
    11:00 0°C° 0 mm 3 m/s 738 mmHg 93%
    12:00 0°C° 0.1 mm 3 m/s 738 mmHg 93%
    13:00 0°C° 0.1 mm 3 m/s 738 mmHg 92%
    14:00 0°C° 0.1 mm 3 m/s 738 mmHg 91%
    15:00 0°C° 0 mm 3 m/s 739 mmHg 92%
    16:00 0°C° 0 mm 3 m/s 739 mmHg 92%
    17:00 0°C° 0 mm 3 m/s 739 mmHg 92%
    18:00 -2°C° 0.2 mm 4 m/s 740 mmHg 90%
    19:00 -2°C° 0.2 mm 5 m/s 741 mmHg 87%
    20:00 -4°C° 0.2 mm 6 m/s 742 mmHg 85%
    21:00 -6°C° 0.1 mm 7 m/s 743 mmHg 84%
    22:00 -6°C° 0.1 mm 7 m/s 743 mmHg 83%
    23:00 -7°C° 0.1 mm 8 m/s 744 mmHg 82%

    21 Februarie, Joi

    Timp Temperatura Precipitaţii Vânt Presiune Umiditate
    00:00 -8°C° 0.2 mm 8 m/s 746 mmHg 81%
    01:00 -10°C° 0.2 mm 8 m/s 747 mmHg 80%
    02:00 -11°C° 0.2 mm 8 m/s 748 mmHg 79%
    03:00 -12°C° 0.1 mm 8 m/s 749 mmHg 77%
    04:00 -12°C° 0.1 mm 8 m/s 751 mmHg 75%
    05:00 -12°C° 0.1 mm 8 m/s 752 mmHg 73%
    06:00 -12°C° 0 mm 8 m/s 753 mmHg 73%
    07:00 -12°C° 0 mm 8 m/s 755 mmHg 72%
    08:00 -12°C° 0 mm 7 m/s 756 mmHg 72%
    09:00 -13°C° 0 mm 7 m/s 757 mmHg 72%
    10:00 -13°C° 0 mm 7 m/s 758 mmHg 72%
    11:00 -12°C° 0 mm 6 m/s 760 mmHg 73%
    12:00 -12°C° 0 mm 6 m/s 760 mmHg 71%
    13:00 -11°C° 0 mm 6 m/s 761 mmHg 70%
    14:00 -11°C° 0 mm 6 m/s 762 mmHg 69%
    15:00 -11°C° 0 mm 5 m/s 763 mmHg 70%
    16:00 -12°C° 0 mm 5 m/s 764 mmHg 72%
    17:00 -11°C° 0 mm 4 m/s 764 mmHg 73%
    18:00 -12°C° 0 mm 4 m/s 765 mmHg 75%
    19:00 -12°C° 0 mm 4 m/s 766 mmHg 77%
    20:00 -12°C° 0 mm 4 m/s 767 mmHg 79%
    21:00 -14°C° 0 mm 4 m/s 767 mmHg 81%
    22:00 -13°C° 0 mm 3 m/s 768 mmHg 83%
    23:00 -13°C° 0 mm 3 m/s 768 mmHg 85%

    22 Februarie, Vineri

    Timp Temperatura Precipitaţii Vânt Presiune Umiditate
    00:00 -14°C° 0 mm 3 m/s 769 mmHg 86%
    01:00 -14°C° 0 mm 3 m/s 770 mmHg 87%
    02:00 -14°C° 0 mm 3 m/s 770 mmHg 88%
    03:00 -14°C° 0 mm 3 m/s 771 mmHg 88%
    04:00 -14°C° 0 mm 2 m/s 771 mmHg 87%
    05:00 -14°C° 0 mm 2 m/s 772 mmHg 87%
    06:00 -14°C° 0 mm 2 m/s 772 mmHg 87%
    07:00 -14°C° 0 mm 2 m/s 773 mmHg 86%
    08:00 -14°C° 0 mm 2 m/s 774 mmHg 85%
    09:00 -13°C° 0 mm 2 m/s 774 mmHg 81%
    10:00 -12°C° 0 mm 2 m/s 774 mmHg 77%
    11:00 -9°C° 0 mm 2 m/s 775 mmHg 73%
    12:00 -9°C° 0 mm 2 m/s 775 mmHg 72%
    13:00 -8°C° 0 mm 2 m/s 775 mmHg 71%
    14:00 -7°C° 0 mm 2 m/s 775 mmHg 70%
    15:00 -8°C° 0 mm 2 m/s 775 mmHg 74%
    16:00 -8°C° 0 mm 2 m/s 775 mmHg 78%
    17:00 -9°C° 0 mm 2 m/s 775 mmHg 82%
    18:00 -9°C° 0 mm 2 m/s 774 mmHg 80%
    19:00 -10°C° 0 mm 3 m/s 774 mmHg 79%
    20:00 -10°C° 0 mm 3 m/s 774 mmHg 78%
    21:00 -10°C° 0 mm 4 m/s 773 mmHg 78%
    22:00 -10°C° 0 mm 5 m/s 772 mmHg 78%
    23:00 -10°C° 0 mm 5 m/s 771 mmHg 79%

    23 Februarie, Sâmbătă

    Timp Temperatura Precipitaţii Vânt Presiune Umiditate
    00:00 -9°C° 0.5 mm 6 m/s 771 mmHg 82%
    01:00 -9°C° 0.5 mm 6 m/s 770 mmHg 86%
    02:00 -8°C° 0.5 mm 7 m/s 769 mmHg 90%
    03:00 -8°C° 0.4 mm 6 m/s 768 mmHg 90%
    04:00 -6°C° 0.4 mm 6 m/s 767 mmHg 90%
    05:00 -6°C° 0.4 mm 6 m/s 766 mmHg 90%
    06:00 -5°C° 0.6 mm 5 m/s 765 mmHg 91%
    07:00 -4°C° 0.6 mm 5 m/s 765 mmHg 92%
    08:00 -4°C° 0.6 mm 5 m/s 764 mmHg 93%
    09:00 -2°C° 0.2 mm 4 m/s 764 mmHg 93%
    10:00 -1°C° 0.2 mm 4 m/s 764 mmHg 93%
    11:00 0°C° 0.2 mm 3 m/s 764 mmHg 94%
    12:00 +1°C° 0 mm 3 m/s 763 mmHg 95%
    13:00 +1°C° 0 mm 3 m/s 763 mmHg 96%
    14:00 +1°C° 0 mm 3 m/s 763 mmHg 97%
    15:00 +1°C° 0 mm 3 m/s 763 mmHg 97%
    16:00 +1°C° 0 mm 3 m/s 763 mmHg 97%
    17:00 +2°C° 0 mm 2 m/s 763 mmHg 97%
    18:00 +1°C° 0.1 mm 3 m/s 762 mmHg 97%
    19:00 +1°C° 0.1 mm 3 m/s 762 mmHg 97%
    20:00 +1°C° 0.1 mm 3 m/s 762 mmHg 97%
    21:00 0°C° 0.2 mm 4 m/s 761 mmHg 96%
    22:00 0°C° 0.2 mm 4 m/s 760 mmHg 96%
    23:00 0°C° 0.2 mm 4 m/s 760 mmHg 96%
    Arată mai mult